Wind_Speed
7 8 9 10 11 13 13 14 16 17 18 20 20 21 21 22 24 25 25 27 26 28 28 29 30 28 29 28 29 29 28 29 30 30 32 33 33 34 34 34 34 35 38 40 35 31 32
8 9 10 11 12 13 15 15 17 19 20 21 21 22 22 24 25 25 27 27 29 28 28 29 30 30 29 29 30 31 32 32 32 33 35 36 35 35 35 36 36 37 38 39 34 29 27
8 8 9 10 12 14 17 17 19 19 21 22 24 25 25 25 25 25 25 25 28 30 29 28 29 30 28 30 29 31 31 32 33 34 35 35 37 37 35 37 37 38 38 38 34 28 25
10 10 10 10 14 18 19 19 21 20 22 23 23 24 25 24 24 27 26 26 26 28 29 25 26 27 27 28 26 29 31 33 33 35 36 36 36 37 36 34 35 35 35 35 32 28 24
10 12 15 15 17 18 20 22 23 23 23 23 22 23 24 27 26 28 23 24 26 27 27 24 24 24 27 25 26 28 32 35 35 36 37 37 34 37 37 36 34 35 36 35 29 26 24
9 13 14 15 17 18 19 21 23 25 27 25 24 26 27 29 30 29 24 22 22 24 24 25 24 23 25 25 28 28 31 34 36 37 39 38 37 36 36 36 39 38 36 34 27 26 20
12 15 15 15 16 18 21 22 23 25 27 28 27 28 29 30 28 27 23 20 21 20 22 24 22 23 24 26 26 29 33 35 37 36 39 37 38 35 35 36 38 36 35 31 25 27 19
13 15 16 17 18 18 18 22 25 25 26 27 29 28 30 30 27 25 18 17 19 17 18 23 23 22 22 25 27 29 32 34 35 35 37 36 36 35 34 33 35 34 31 28 24 27 16
17 16 17 18 19 22 22 21 23 24 26 29 29 31 28 28 27 23 20 18 17 17 21 21 20 22 23 26 27 31 32 34 34 33 34 36 33 36 32 29 27 30 28 28 22 22 16
17 20 20 22 22 22 22 24 26 24 24 26 30 31 31 26 27 22 21 21 22 23 21 19 20 20 23 25 27 30 32 35 37 39 37 34 32 33 30 27 24 27 27 26 19 16 13
17 20 23 22 24 26 24 24 26 27 26 26 29 32 31 25 25 24 21 20 21 22 25 25 25 25 25 25 26 29 31 32 35 42 34 29 32 26 28 26 25 24 25 24 18 12 12
21 23 22 23 25 27 27 25 25 27 27 29 27 29 29 31 22 24 22 22 21 23 24 24 24 27 27 28 29 29 30 32 35 37 37 31 29 26 25 25 23 21 22 20 19 12 7
26 27 27 28 27 26 26 29 29 28 31 30 29 27 28 31 25 19 22 22 21 22 24 24 26 29 30 29 29 29 29 31 33 33 32 30 30 28 21 19 17 18 16 15 17 13 9
30 34 30 30 27 27 26 28 29 24 28 31 30 30 30 28 27 23 21 21 20 21 24 26 28 28 28 28 26 27 29 31 32 33 32 28 28 28 25 22 18 15 12 15 16 16 14
32 36 34 29 29 27 28 28 30 30 33 29 31 31 32 27 27 27 22 20 19 19 21 22 28 27 26 25 25 26 27 29 31 32 31 28 27 30 27 23 18 17 13 14 14 15 14
39 37 35 30 30 32 35 29 30 32 28 29 31 32 33 30 28 27 24 24 18 17 20 24 26 26 25 24 24 24 26 27 28 29 30 26 24 28 25 26 22 19 14 11 9 11 14
42 40 35 35 35 36 36 31 31 32 32 31 31 33 33 31 30 28 25 24 22 18 20 22 23 23 25 23 22 23 24 25 25 25 26 26 25 27 27 25 25 21 15 8 8 10 11
45 43 35 33 35 36 33 33 35 36 34 34 36 33 34 34 31 29 28 27 24 21 20 21 22 23 23 24 22 21 24 24 24 22 21 23 23 22 23 23 23 22 16 12 9 11 14
41 39 32 36 38 37 33 35 38 39 38 38 37 35 32 36 32 31 29 28 26 22 21 22 21 24 24 22 23 21 24 24 23 20 20 20 21 21 23 22 24 23 18 15 13 14 16
39 37 33 35 36 32 33 37 38 39 38 37 36 34 34 34 31 32 31 30 31 25 21 24 23 24 26 25 23 22 23 24 23 21 20 19 20 22 23 21 19 19 22 19 16 15 16
41 38 35 39 36 36 34 37 38 41 39 39 38 37 37 35 30 33 32 31 32 29 24 23 24 25 27 26 25 24 24 25 25 21 20 21 21 19 23 24 22 21 21 22 23 24 24
43 43 38 35 37 36 37 37 41 40 39 40 41 42 44 42 32 32 35 33 32 31 31 28 27 27 28 29 28 26 25 27 27 25 23 25 25 24 21 24 25 24 27 26 26 27 29
49 47 42 39 36 37 39 40 40 40 41 42 44 46 46 42 41 35 37 36 34 33 34 38 35 33 30 32 31 29 28 29 28 28 27 26 29 29 23 28 31 29 28 29 30 32 33
51 50 48 47 47 44 42 44 45 43 42 45 45 47 48 48 44 38 40 35 38 36 35 33 35 39 34 34 34 31 31 31 30 31 30 31 33 33 31 32 34 36 37 37 39 39 39
53 55 54 53 52 49 48 47 45 47 43 45 47 50 52 53 47 43 45 41 37 38 34 36 36 35 35 36 35 32 33 34 34 34 33 35 35 35 36 38 41 41 43 44 46 47 48
48 50 53 57 56 53 52 51 46 47 46 43 45 49 52 49 43 46 45 41 41 35 35 36 36 36 40 38 38 36 35 36 38 37 37 34 34 38 39 45 47 46 47 49 52 52 55
49 49 50 50 51 50 52 52 54 51 48 48 48 47 47 51 43 39 40 37 35 32 33 37 38 40 42 39 37 35 33 35 36 37 36 37 41 42 44 47 49 49 51 55 56 59 61
46 48 47 47 49 50 51 51 53 51 50 50 46 44 46 45 44 40 39 36 34 34 37 38 39 39 39 37 33 32 31 32 35 37 39 42 45 46 49 52 55 55 57 59 63 66 67
45 45 45 45 45 49 49 47 47 47 46 42 42 43 41 42 42 39 37 33 36 36 38 38 38 37 33 31 31 33 36 39 40 41 44 45 47 50 52 56 58 60 63 66 69 70 71
Wind_Direction
22 21 21 18 14 10 4 358 353 352 349 350 346 346 347 345 346 345 344 346 345 345 343 347 352 351 353 352 354 352 350 349 347 346 345 346 347 347 346 343 339 336 332 330 324 315 314
16 11 11 5 5 0 353 349 345 345 344 343 341 341 344 345 347 343 340 339 341 337 339 339 342 348 351 349 351 353 351 349 347 347 345 343 347 349 349 345 340 341 336 335 332 322 318
15 5 6 6 2 355 352 351 344 338 340 338 337 339 340 341 339 341 340 335 333 338 339 333 334 342 346 345 347 348 349 348 350 350 347 343 346 348 352 347 343 344 339 340 335 329 321
1 358 353 349 349 349 343 346 348 338 334 334 332 335 339 339 341 338 335 336 334 336 339 331 329 336 342 343 344 341 343 347 347 348 347 347 345 346 349 352 347 343 345 348 337 334 327
350 342 341 339 336 340 343 344 344 342 340 336 329 331 331 332 332 341 334 334 338 335 335 333 331 334 337 336 337 338 341 342 345 345 346 346 347 343 347 352 350 354 354 352 348 343 339
340 339 337 339 336 338 341 344 342 341 339 341 339 334 331 330 334 332 332 339 336 338 337 335 333 333 332 333 334 337 339 340 341 342 345 347 346 347 347 348 355 360 357 356 359 355 356
321 324 336 334 334 338 337 337 338 341 342 343 343 346 346 342 338 335 322 320 334 339 342 336 331 333 329 330 333 336 337 338 337 339 342 346 344 345 350 352 356 2 359 360 7 9 12
305 310 320 328 328 329 331 331 331 337 337 340 342 343 351 350 346 338 326 325 330 335 339 334 332 333 329 326 328 329 331 334 335 337 337 343 342 347 350 356 354 1 1 5 12 20 33
299 302 306 309 318 320 322 323 327 331 335 335 341 341 350 350 349 341 332 330 332 333 336 335 343 342 335 330 327 328 329 332 334 330 333 338 345 346 350 356 352 0 4 11 20 33 58
297 303 303 305 307 310 314 319 322 324 328 332 334 337 343 351 352 347 340 341 341 342 341 344 344 348 344 340 337 335 335 331 329 331 339 335 346 346 348 347 357 1 11 17 23 44 70
301 305 304 303 300 302 303 310 311 316 322 327 331 334 337 344 352 347 347 340 343 345 349 348 346 343 346 344 343 340 339 334 330 335 343 340 339 347 344 347 2 6 15 17 24 39 61
305 305 308 307 302 298 294 298 306 311 314 315 323 325 329 335 348 352 351 345 338 340 349 351 354 350 345 341 339 340 342 338 337 339 344 346 337 349 350 351 358 11 15 16 27 34 52
307 302 300 309 307 299 298 299 302 302 308 308 312 319 322 327 336 347 348 346 335 334 345 348 347 344 341 341 341 345 346 343 342 342 350 351 342 350 358 356 3 7 9 21 35 38 54
308 312 302 299 302 298 293 297 301 304 309 306 309 312 316 321 322 329 332 342 344 346 343 346 341 345 344 341 347 350 351 356 355 352 357 357 342 351 354 1 6 20 25 30 31 36 43
303 310 312 295 297 298 294 294 295 295 298 304 304 306 308 313 313 319 325 329 340 343 343 342 344 344 344 345 348 354 355 1 2 3 0 0 344 352 353 357 3 10 15 22 33 35 34
300 305 307 295 298 301 296 290 290 296 296 298 303 306 306 313 311 312 318 318 328 342 343 342 347 346 346 346 347 352 356 359 5 7 7 7 354 354 2 355 358 3 7 17 27 35 29
290 298 299 293 294 300 300 291 292 297 295 296 295 302 303 308 312 308 306 305 315 323 331 336 339 344 347 344 342 344 347 351 1 5 7 6 1 355 2 357 350 359 354 3 14 18 14
290 289 290 294 290 296 297 292 293 293 293 292 290 297 301 304 308 305 305 301 301 310 319 325 330 330 340 340 334 336 337 341 349 359 3 2 6 1 7 8 356 10 10 353 360 353 351
290 288 291 287 291 290 293 294 295 298 292 296 293 291 296 299 303 304 302 302 290 300 315 316 322 323 326 329 326 327 329 332 338 345 352 355 3 4 2 8 3 4 10 359 339 329 331
282 283 285 290 289 282 293 295 295 301 299 296 296 293 288 288 296 299 298 300 291 282 304 306 311 316 317 318 319 318 323 325 329 332 337 339 346 348 345 349 355 348 346 348 343 332 323
282 280 285 287 281 281 288 294 296 301 297 296 291 286 287 287 289 293 293 295 292 284 288 298 305 308 309 308 312 309 311 316 316 317 321 323 325 333 329 331 337 333 331 329 325 321 320
274 277 279 284 274 271 280 291 290 297 303 301 297 294 296 288 281 283 290 293 290 287 284 285 294 299 296 303 303 303 303 307 308 307 309 312 313 318 316 315 319 318 316 317 313 309 305
271 272 271 277 277 274 281 285 286 294 299 303 301 300 298 293 285 284 286 287 286 287 288 283 286 297 290 299 297 299 300 302 304 300 301 305 305 305 306 303 307 307 306 303 300 299 296
265 268 269 273 276 278 277 281 284 290 294 299 299 300 299 293 283 283 281 277 284 282 279 279 284 290 282 294 292 294 293 296 297 296 297 302 302 300 301 301 305 306 307 307 304 302 298
269 269 268 271 273 278 275 279 285 290 292 296 296 296 297 297 286 278 278 276 276 279 274 281 286 279 280 287 288 290 291 294 296 294 296 298 297 296 298 298 301 300 302 302 301 297 298
275 273 272 269 271 276 277 281 282 284 283 286 288 292 299 294 288 280 281 282 283 281 281 279 278 276 279 281 285 287 292 294 296 293 293 292 293 295 297 298 297 298 298 298 294 294 293
275 275 277 271 267 269 273 277 280 278 281 282 289 292 292 281 285 277 283 284 287 282 281 279 276 275 282 281 285 289 291 294 294 293 292 291 293 294 294 294 294 296 295 294 294 292 292
275 275 275 274 271 270 274 276 279 282 282 283 291 291 287 282 282 286 287 287 286 279 280 282 283 286 288 288 287 288 289 291 292 291 290 291 292 293 292 293 295 296 295 294 293 292 291
269 271 275 276 273 274 272 275 278 281 284 287 293 290 286 284 286 285 284 281 284 282 284 285 286 288 287 286 290 289 289 292 291 291 292 293 293 294 295 295 296 294 294 293 293 293 293
Height
5862 5861 5860 5858 5857 5856 5854 5852 5850 5848 5846 5843 5840 5838 5836 5833 5830 5827 5823 5820 5816 5814 5810 5807 5803 5799 5795 5791 5785 5781 5777 5773 5770 5766 5760 5755 5748 5742 5735 5729 5722 5715 5708 5698 5690 5682 5675
5862 5861 5860 5859 5858 5855 5853 5851 5849 5847 5845 5842 5839 5837 5834 5831 5829 5825 5822 5819 5815 5811 5808 5805 5801 5797 5793 5789 5784 5779 5774 5771 5766 5761 5756 5750 5744 5738 5731 5723 5717 5709 5700 5692 5683 5675 5669
5862 5861 5860 5859 5857 5855 5852 5850 5848 5846 5844 5841 5838 5835 5833 5830 5827 5824 5820 5817 5813 5810 5806 5803 5799 5795 5791 5788 5782 5778 5774 5769 5763 5758 5752 5746 5739 5734 5727 5720 5711 5704 5696 5685 5676 5670 5665
5862 5861 5859 5858 5857 5854 5852 5849 5847 5845 5842 5839 5836 5834 5832 5829 5825 5822 5818 5814 5811 5807 5804 5800 5797 5793 5789 5785 5780 5775 5771 5766 5760 5755 5749 5742 5735 5730 5724 5718 5709 5702 5692 5683 5673 5666 5661
5862 5860 5859 5858 5855 5853 5851 5849 5847 5843 5840 5837 5834 5831 5829 5826 5823 5819 5815 5812 5809 5805 5801 5797 5794 5791 5788 5783 5778 5774 5768 5763 5758 5752 5746 5740 5734 5727 5721 5714 5708 5698 5689 5680 5671 5664 5659
5860 5859 5857 5856 5854 5852 5850 5848 5845 5842 5839 5836 5832 5829 5826 5823 5820 5816 5813 5810 5806 5803 5798 5795 5792 5790 5787 5782 5777 5773 5768 5762 5756 5751 5746 5739 5732 5726 5719 5712 5702 5695 5688 5678 5671 5664 5657
5858 5857 5856 5854 5853 5851 5849 5847 5843 5840 5837 5834 5831 5827 5824 5820 5816 5812 5808 5806 5805 5802 5796 5792 5788 5785 5782 5779 5775 5771 5767 5762 5755 5750 5743 5737 5731 5724 5717 5708 5701 5694 5687 5680 5672 5665 5659
5856 5855 5854 5853 5851 5849 5847 5845 5842 5840 5836 5833 5829 5826 5822 5818 5813 5809 5806 5803 5800 5799 5798 5791 5787 5783 5780 5777 5774 5769 5764 5760 5754 5747 5740 5735 5728 5721 5715 5708 5701 5695 5689 5681 5673 5668 5663
5853 5852 5851 5850 5849 5847 5845 5842 5839 5837 5835 5832 5828 5824 5820 5816 5812 5808 5804 5801 5797 5795 5793 5789 5784 5780 5778 5775 5771 5767 5763 5757 5751 5744 5737 5731 5727 5718 5713 5710 5705 5698 5691 5683 5677 5673 5668
5849 5849 5848 5847 5846 5844 5842 5840 5837 5834 5832 5829 5827 5823 5818 5814 5811 5806 5803 5800 5797 5794 5791 5787 5782 5778 5775 5770 5767 5762 5758 5754 5747 5741 5735 5728 5723 5718 5713 5709 5705 5699 5691 5685 5680 5678 5675
5846 5845 5845 5843 5842 5841 5839 5837 5834 5831 5829 5826 5824 5821 5817 5812 5809 5805 5802 5799 5796 5793 5789 5786 5782 5778 5773 5769 5763 5760 5755 5750 5744 5737 5734 5728 5721 5717 5712 5708 5703 5699 5693 5688 5684 5681 5678
5843 5842 5841 5839 5837 5836 5834 5833 5831 5828 5826 5823 5821 5818 5814 5811 5806 5803 5799 5796 5794 5792 5786 5783 5781 5777 5772 5767 5761 5756 5752 5747 5742 5736 5731 5726 5718 5715 5710 5706 5702 5699 5696 5692 5687 5684 5682
5839 5838 5837 5835 5833 5831 5830 5829 5827 5825 5821 5819 5817 5813 5811 5808 5804 5800 5796 5794 5792 5788 5785 5782 5778 5774 5771 5765 5759 5754 5749 5745 5740 5734 5731 5724 5716 5713 5711 5708 5704 5700 5698 5696 5691 5687 5685
5834 5832 5830 5830 5828 5826 5825 5822 5821 5821 5818 5816 5814 5810 5807 5804 5801 5797 5794 5791 5787 5784 5781 5778 5775 5771 5767 5762 5758 5752 5747 5742 5737 5731 5726 5722 5714 5711 5707 5705 5703 5702 5700 5696 5693 5690 5687
5828 5827 5824 5823 5822 5821 5819 5817 5815 5815 5813 5811 5809 5806 5802 5800 5798 5794 5791 5788 5784 5781 5779 5775 5772 5769 5764 5760 5754 5750 5745 5740 5735 5730 5726 5721 5714 5710 5707 5704 5703 5700 5699 5698 5695 5693 5691
5822 5821 5819 5818 5817 5814 5813 5811 5810 5809 5807 5806 5803 5802 5798 5794 5793 5790 5787 5785 5780 5776 5774 5771 5767 5765 5761 5757 5752 5747 5743 5738 5733 5729 5725 5721 5716 5711 5709 5705 5703 5702 5701 5698 5697 5696 5694
5816 5815 5813 5811 5810 5808 5806 5805 5804 5803 5800 5798 5797 5795 5793 5789 5788 5785 5782 5780 5777 5773 5770 5768 5764 5760 5757 5754 5749 5745 5742 5737 5731 5727 5724 5720 5716 5712 5708 5705 5703 5703 5700 5701 5698 5696 5694
5808 5807 5807 5805 5803 5802 5800 5798 5797 5795 5794 5790 5789 5788 5786 5783 5783 5780 5777 5774 5773 5768 5765 5762 5759 5757 5753 5750 5747 5742 5738 5734 5730 5726 5722 5718 5716 5712 5710 5706 5703 5704 5702 5700 5699 5699 5696
5800 5800 5798 5798 5796 5794 5793 5791 5789 5787 5785 5783 5781 5781 5779 5776 5774 5773 5770 5767 5765 5763 5760 5757 5753 5752 5750 5746 5743 5738 5735 5732 5728 5724 5721 5717 5714 5712 5708 5707 5702 5700 5701 5700 5698 5696 5694
5792 5791 5790 5790 5789 5787 5786 5784 5781 5779 5777 5775 5773 5772 5772 5769 5767 5765 5762 5761 5758 5756 5754 5751 5748 5746 5744 5742 5738 5734 5731 5728 5724 5722 5719 5716 5713 5709 5706 5704 5702 5699 5698 5698 5698 5697 5696
5784 5783 5782 5781 5781 5779 5778 5777 5774 5771 5769 5768 5766 5765 5762 5759 5759 5757 5755 5753 5750 5749 5747 5744 5743 5739 5737 5735 5733 5728 5725 5723 5720 5717 5715 5712 5709 5708 5703 5700 5699 5697 5695 5694 5693 5690 5689
5774 5775 5774 5773 5772 5771 5770 5768 5766 5763 5761 5759 5757 5755 5753 5750 5748 5747 5746 5744 5743 5740 5740 5737 5734 5732 5730 5727 5725 5722 5720 5716 5715 5713 5710 5707 5705 5703 5701 5697 5695 5693 5690 5689 5687 5686 5683
5764 5765 5764 5764 5763 5762 5762 5760 5758 5755 5752 5750 5748 5745 5743 5743 5739 5736 5736 5733 5733 5731 5730 5728 5727 5724 5722 5720 5717 5715 5713 5710 5709 5707 5704 5701 5698 5696 5695 5692 5690 5689 5687 5684 5681 5679 5676
5752 5753 5754 5753 5753 5752 5751 5750 5749 5746 5743 5741 5738 5735 5733 5733 5730 5726 5725 5724 5722 5721 5719 5717 5716 5715 5714 5711 5709 5707 5704 5701 5699 5698 5696 5694 5691 5689 5688 5684 5682 5679 5677 5674 5671 5669 5666
5741 5742 5742 5742 5742 5742 5740 5739 5738 5737 5734 5732 5728 5726 5722 5720 5720 5717 5714 5714 5711 5709 5708 5707 5706 5705 5703 5702 5700 5698 5696 5694 5691 5689 5687 5684 5682 5680 5678 5675 5673 5671 5668 5665 5660 5657 5653
5728 5729 5729 5729 5730 5730 5729 5728 5727 5725 5724 5721 5717 5715 5712 5708 5711 5706 5704 5704 5702 5700 5699 5697 5695 5695 5694 5692 5690 5689 5687 5684 5683 5681 5678 5675 5673 5671 5668 5664 5661 5659 5657 5652 5648 5645 5640
5717 5717 5717 5717 5716 5717 5717 5717 5716 5714 5712 5710 5708 5704 5702 5700 5698 5697 5695 5693 5691 5688 5688 5687 5685 5684 5683 5682 5680 5679 5677 5675 5673 5670 5667 5665 5661 5659 5655 5651 5649 5647 5643 5638 5634 5631 5624
5704 5705 5704 5704 5706 5705 5704 5704 5704 5702 5701 5699 5696 5693 5691 5689 5688 5686 5685 5684 5681 5679 5678 5678 5676 5675 5673 5672 5670 5668 5667 5664 5662 5659 5656 5653 5649 5646 5642 5637 5634 5630 5626 5622 5616 5610 5605
5691 5692 5693 5693 5693 5694 5692 5692 5690 5689 5687 5686 5684 5682 5680 5679 5678 5676 5674 5672 5672 5672 5670 5668 5667 5665 5663 5661 5660 5658 5657 5654 5651 5648 5644 5641 5638 5633 5630 5624 5618 5612 5607 5601 5595 5589 5583